User: anonymous   Login
Location: Hartman Creek State Park
(44.3257°N, 89.2134°W)
Time: 01:11:23
(UTC-05:00)
Language:

Terra - Orbit

View from above orbital plane
View from above orbital plane
View from above satellite
View from above satellite

Ground track
Ground track

The orbit data is extracted from the following two-line orbital elements,

1 25994U 99068A   16182.75483146 -.00000042  00000-0  81332-6 0  9997
2 25994  98.2087 256.8642 0001606  85.2860 274.8520 14.57111365879499
Epoch (UTC): 30 June 2016 18:06:57
Eccentricity: 0.0001606
inclination: 98.2087°
perigee height: 701 km
apogee height: 703 km
right ascension of ascending node: 256.8642°
argument of perigee: 85.2860°
revolutions per day: 14.57111365
mean anomaly at epoch: 274.8520°
orbit number at epoch: 87949

The dashed part of the orbit path shows where the satellite is in the earth's shadow,  

DLR